Weather History for Canadian, TX

Change the Weather History Date:

Friday, February 10, 2012

  Actual Average (KPPA) Record (KPPA)
Temperature  
Mean Temperature 32 °F -  
Max Temperature 37 °F 50 °F 82 °F (1976)
Min Temperature 28 °F 23 °F -2 °F (2011)
Degree Days  
Heating Degree Days 32    
Moisture  
Dew Point 27 °F    
Average Humidity 80    
Maximum Humidity 100    
Minimum Humidity 65    
Precipitation  
Precipitation 0.00 in - - ()
Sea Level Pressure  
Sea Level Pressure 30.22 in    
Wind  
Wind Speed 5 mph (North)    
Max Wind Speed 14 mph    
Max Gust Speed 18 mph    
Visibility 9 miles    
Events      
Averages and records for this station are not official NWS values.
T = Trace of Precipitation, MM = Missing Value Source: NWS Daily Summary

Daily Weather History Graph

Daily Weather History Graph

Search for Another Location

Airport:

Trip Planner

Search our weather history database for the weather conditions in past years. The results will help you decide how hot, cold, wet, or windy it might be!

Date:

Astronomy

Feb. 10, 2012 Rise Set
Actual Time 7:34 AM CST 6:17 PM CST
Civil Twilight 7:08 AM CST 6:44 PM CST
Nautical Twilight 6:37 AM CST 7:14 PM CST
Astronomical Twilight 6:07 AM CST 7:44 PM CST
Moon 9:48 PM CST (2/10) 8:52 AM CST (2/10)
Length of Visible Light 11h 36m
Length of Day
10h 43m
Waning Gibbous, 90% of the Moon is Illuminated
Feb 10
Waning Gibbous
Feb 14
Last Quarter
Feb 21
New
Feb 29
First Quarter
Mar 8
Full

Hourly Weather History & Observations

Time (CST) Temp. Windchill Dew Point Humidity Pressure Visibility Wind Dir Wind Speed Gust Speed Precip Events Conditions
12:15 AM 30.2 °F - 30.2 °F 100% 30.16 in 3.0 mi Calm Calm - N/A   Clear
12:35 AM 30.2 °F - 30.2 °F 100% 30.16 in 3.0 mi Calm Calm - N/A   Clear
12:55 AM 30.2 °F 24.3 °F 30.2 °F 100% 30.16 in 3.0 mi SSW 5.8 mph - N/A   Clear
1:15 AM 28.4 °F - 28.4 °F 100% 30.15 in 3.0 mi Calm Calm - N/A   Clear
1:35 AM 28.4 °F - 28.4 °F 100% 30.14 in 2.5 mi Calm Calm - N/A   Clear
1:55 AM 28.4 °F - 28.4 °F 100% 30.15 in 4.0 mi Calm Calm - N/A   Clear
2:15 AM 28.4 °F - 28.4 °F 100% 30.14 in 4.0 mi Calm Calm - N/A   Clear
2:35 AM 28.4 °F - 26.6 °F 93% 30.14 in 4.0 mi Calm Calm - N/A   Clear
2:55 AM 28.4 °F - 26.6 °F 93% 30.14 in 4.0 mi Calm Calm - N/A   Clear
3:15 AM 28.4 °F - 26.6 °F 93% 30.14 in 4.0 mi Calm Calm - N/A   Clear
3:35 AM 30.2 °F - 28.4 °F 93% 30.14 in 7.0 mi Calm Calm - N/A   Clear
3:55 AM 32.0 °F - 28.4 °F 87% 30.14 in 10.0 mi Calm Calm - N/A   Clear
4:15 AM 32.0 °F - 28.4 °F 87% 30.14 in 10.0 mi Calm Calm - N/A   Clear
4:35 AM 32.0 °F 23.6 °F 28.4 °F 87% 30.15 in 10.0 mi NW 10.4 mph 16.1 mph N/A   Clear
4:55 AM 32.0 °F 24.8 °F 28.4 °F 87% 30.16 in 10.0 mi NW 8.1 mph - N/A   Clear
5:15 AM 32.0 °F 22.5 °F 28.4 °F 87% 30.16 in 10.0 mi NW 12.7 mph - N/A   Clear
5:35 AM 32.0 °F 22.5 °F 28.4 °F 87% 30.17 in 10.0 mi NW 12.7 mph - N/A   Clear
5:55 AM 32.0 °F 23.6 °F 28.4 °F 87% 30.17 in 10.0 mi NNW 10.4 mph 18.4 mph N/A   Clear
6:15 AM 32.0 °F 25.6 °F 28.4 °F 87% 30.19 in 10.0 mi NNW 6.9 mph - N/A   Clear
6:35 AM 32.0 °F 27.5 °F 26.6 °F 80% 30.19 in 10.0 mi NNW 4.6 mph - N/A   Clear
6:55 AM 30.2 °F 25.4 °F 26.6 °F 86% 30.20 in 10.0 mi NNW 4.6 mph - N/A   Clear
7:15 AM 30.2 °F 25.4 °F 26.6 °F 86% 30.21 in 10.0 mi NNW 4.6 mph - N/A   Clear
7:35 AM 30.2 °F 22.6 °F 26.6 °F 86% 30.21 in 10.0 mi NNW 8.1 mph - N/A   Clear
7:55 AM 30.2 °F 22.6 °F 24.8 °F 80% 30.22 in 10.0 mi North 8.1 mph - N/A   Clear
8:15 AM 30.2 °F 22.6 °F 24.8 °F 80% 30.24 in 10.0 mi NNW 8.1 mph - N/A   Clear
8:35 AM 30.2 °F 22.6 °F 24.8 °F 80% 30.26 in 10.0 mi NW 8.1 mph - N/A   Clear
8:55 AM 30.2 °F 24.3 °F 24.8 °F 80% 30.27 in 10.0 mi NNW 5.8 mph - N/A   Clear
9:15 AM 32.0 °F 24.8 °F 24.8 °F 75% 30.27 in 10.0 mi NNW 8.1 mph - N/A   Clear
9:35 AM 32.0 °F 24.2 °F 24.8 °F 75% 30.27 in 10.0 mi NNW 9.2 mph - N/A   Clear
9:55 AM 32.0 °F 23.6 °F 24.8 °F 75% 30.27 in 10.0 mi North 10.4 mph - N/A   Clear
10:15 AM 32.0 °F 23.0 °F 24.8 °F 75% 30.27 in 10.0 mi North 11.5 mph - N/A   Clear
10:35 AM 32.0 °F 24.2 °F 24.8 °F 75% 30.28 in 10.0 mi North 9.2 mph 16.1 mph N/A   Clear
10:55 AM 32.0 °F 22.1 °F 24.8 °F 75% 30.28 in 10.0 mi North 13.8 mph 18.4 mph N/A   Clear
11:15 AM 33.8 °F 24.3 °F 24.8 °F 70% 30.28 in 10.0 mi North 13.8 mph - N/A   Clear
11:35 AM 33.8 °F 24.8 °F 24.8 °F 70% 30.29 in 10.0 mi North 12.7 mph 17.3 mph N/A   Clear
12:15 PM 33.8 °F 25.8 °F 26.6 °F 75% 30.30 in 10.0 mi North 10.4 mph - N/A   Clear
12:35 PM 35.6 °F 27.1 °F 24.8 °F 65% 30.29 in 10.0 mi North 12.7 mph 17.3 mph N/A   Clear
12:55 PM 35.6 °F 29.2 °F 26.6 °F 70% 30.29 in 10.0 mi North 8.1 mph 17.3 mph N/A   Clear
1:15 PM 35.6 °F 28.0 °F 26.6 °F 70% 30.28 in 10.0 mi North 10.4 mph - N/A   Clear
1:35 PM 35.6 °F 28.0 °F 26.6 °F 70% 30.27 in 10.0 mi North 10.4 mph - N/A   Clear
1:55 PM 35.6 °F 27.5 °F 26.6 °F 70% 30.26 in 10.0 mi North 11.5 mph - N/A   Clear
2:15 PM 37.4 °F 30.8 °F 28.4 °F 70% 30.25 in 10.0 mi North 9.2 mph 16.1 mph N/A   Clear
2:35 PM 37.4 °F 30.3 °F 28.4 °F 70% 30.25 in 10.0 mi NNE 10.4 mph - N/A   Clear
2:55 PM 37.4 °F 30.8 °F 26.6 °F 65% 30.25 in 10.0 mi North 9.2 mph - N/A   Clear
3:15 PM 37.4 °F 30.3 °F 28.4 °F 70% 30.25 in 10.0 mi NNE 10.4 mph 16.1 mph N/A   Clear
3:35 PM 37.4 °F 29.3 °F 28.4 °F 70% 30.25 in 10.0 mi NNE 12.7 mph - N/A   Clear
3:55 PM 37.4 °F 30.3 °F 26.6 °F 65% 30.26 in 10.0 mi NNE 10.4 mph 16.1 mph N/A   Clear
4:15 PM 37.4 °F 30.8 °F 26.6 °F 65% 30.26 in 10.0 mi North 9.2 mph 16.1 mph N/A   Clear
4:35 PM 37.4 °F 31.4 °F 26.6 °F 65% 30.26 in 10.0 mi NNE 8.1 mph - N/A   Clear
4:55 PM 37.4 °F 30.8 °F 28.4 °F 70% 30.26 in 10.0 mi NNE 9.2 mph - N/A   Clear
5:15 PM 35.6 °F 28.6 °F 28.4 °F 75% 30.27 in 10.0 mi NE 9.2 mph - N/A   Clear
5:35 PM 35.6 °F 28.0 °F 28.4 °F 75% 30.27 in 10.0 mi NE 10.4 mph - N/A   Clear
5:55 PM 33.8 °F 25.3 °F 28.4 °F 81% 30.27 in 10.0 mi NE 11.5 mph - N/A   Clear
6:15 PM 33.8 °F 26.4 °F 28.4 °F 81% 30.27 in 10.0 mi NE 9.2 mph - N/A   Clear
6:35 PM 33.8 °F 27.0 °F 28.4 °F 81% 30.28 in 10.0 mi NE 8.1 mph - N/A   Clear
6:55 PM 32.0 °F 25.6 °F 28.4 °F 87% 30.28 in 10.0 mi ENE 6.9 mph - N/A   Clear
7:15 PM 32.0 °F 24.8 °F 28.4 °F 87% 30.29 in 10.0 mi ENE 8.1 mph - N/A   Clear
7:35 PM 32.0 °F 23.6 °F 28.4 °F 87% 30.30 in 10.0 mi ENE 10.4 mph - N/A   Clear
8:15 PM 32.0 °F 24.2 °F 26.6 °F 80% 30.31 in 10.0 mi ENE 9.2 mph - N/A   Clear
8:35 PM 32.0 °F 25.6 °F 26.6 °F 80% 30.32 in 10.0 mi ENE 6.9 mph - N/A   Clear
8:55 PM 30.2 °F 22.6 °F 26.6 °F 86% 30.32 in 10.0 mi ENE 8.1 mph - N/A   Clear
9:15 PM 30.2 °F 22.6 °F 26.6 °F 86% 30.33 in 10.0 mi ENE 8.1 mph - N/A   Clear
9:35 PM 30.2 °F 21.9 °F 24.8 °F 80% 30.33 in 10.0 mi ENE 9.2 mph - N/A   Clear
9:55 PM 30.2 °F 21.9 °F 23.0 °F 75% 30.35 in 10.0 mi NE 9.2 mph - N/A   Clear
10:15 PM 30.2 °F 21.3 °F 23.0 °F 75% 30.35 in 10.0 mi NE 10.4 mph - N/A   Clear
10:35 PM 28.4 °F 19.7 °F 23.0 °F 80% 30.35 in 10.0 mi NE 9.2 mph - N/A   Clear
10:55 PM 28.4 °F 19.7 °F 23.0 °F 80% 30.36 in 10.0 mi NE 9.2 mph - N/A   Clear
11:15 PM 28.4 °F 21.2 °F 23.0 °F 80% 30.38 in 10.0 mi NE 6.9 mph - N/A   Scattered Clouds
11:35 PM 28.4 °F 18.5 °F 21.2 °F 74% 30.39 in 10.0 mi ENE 11.5 mph - N/A   Scattered Clouds
11:55 PM 28.4 °F 18.5 °F 21.2 °F 74% 30.40 in 10.0 mi ENE 11.5 mph - N/A   Mostly Cloudy